Погода в Дорадо

Пуэрто-Рико     18°25′58″N   66°16′47″W
темп.,
°C
ветер,
м/с
пор.,
м/с
влажн.,
%
обл.,
%
осадки,
мм/ч
давл.,
гПа
погр.,
м
11 апреля, вс
вс1123:00+23всв356552 0.0 1016626
02:00+22в236657 0.0 1014574
05:00+21в237098 0.0 1014568
08:00+23в346518 0.0 1016718
11:00+26всв555842 0.1 10151287
14:00+26св765698 0.1 10131020
17:00+26всв776064 0.0 1012903
20:00+24в56655 0.0 1014710
12 апреля, пн
пн1223:00+22вюв35717 0.0 1014563
02:00+21юв2375100 0.0 1014269
05:00+21ююв337571 0.0 1014204
08:00+23ююв2362100 0.0 1015334
11:00+28всв444649 0.0 10141075
14:00+27св765563 0.0 1012825
17:00+26св54595 0.0 1012736
20:00+25всв346976 0.0 1014391
13 апреля, вт
вт1323:00+23ю3373100 0.0 1014154
02:00+22ююв22775 0.0 1013112
05:00+21ююз127937 0.0 101391
08:00+24ююз11685 0.0 1015218
11:00+27с435773 0.0 1015922
14:00+28ссв545965 0.0 1013661
17:00+27ссв326396 0.0 1013646
20:00+25св227196 0.0 1014345
14 апреля, ср
ср1423:00+24вюв117698 0.0 1015253
02:00+23вюв11837 0.0 1013204
05:00+23ююв118854 0.0 1014165
08:00+24юв1182100 0.0 1015265
11:00+28ссв53686 0.0 10161020
14:00+27ссв65684 0.1 1014768
17:00+27св446549 0.1 1013904
20:00+25всв447198 0.1 1015619
15 апреля, чт
чт1523:00+24в347614 0.0 1015422
02:00+23вюв34816 0.0 1013402
05:00+22юв34835 0.0 1013330
08:00+25вюв35737 0.0 1015523
11:00+29всв556128 0.0 10151128
14:00+28всв876890 0.1 1012567
17:00+26в668038 1.8 1011231
20:00+25вюв46853 2.9 1013182